Regional Weather Roundup
Issued by NWS

Home | Current Version | Previous Version | Graphics & Text | Print | Product List | Glossary On
Versions: 1 2 3 4 5 6 7 8 9 10 11 12 13 14 15 16 17 18 19 20 21 22 23 24 25 26 27 28 29 30 31 32 33 34 35 36 37 38 39 40 41 42 43 44 45 46 47 48 49 50
000
ASUS43 KLMK 260310
RWRKY
KENTUCKY REGIONAL WEATHER ROUNDUP
NATIONAL WEATHER SERVICE LOUISVILLE KY
1100 PM EDT SAT MAR 25 2017

NOTE "FAIR" INDICATES FEW OR NO CLOUDS BELOW 12,000 FEET
WITH NO SIGNIFICANT WEATHER AND/OR OBSTRUCTIONS TO VISIBILITY.

KYZ001>023-026-027-061>063-070>075-260400-
WESTERN AND SOUTH CENTRAL KENTUCKY

CITY           SKY/WX    TMP DP  RH WIND       PRES   REMARKS
PADUCAH        LGT RAIN  59  55  87 S6        29.92R
HENDERSON      CLOUDY    64  52  63 S9        29.92S
OWENSBORO      NOT AVBL
HOPKINSVILLE   CLOUDY    63  57  82 S6        29.96S
BOWLING GREEN  LGT RAIN  63  55  75 S16G25    30.00S
GLASGOW        LGT RAIN  60  54  80 S9G17     30.04R
$$

KYZ024-025-028>034-038-045-046-053-260400-
NORTH CENTRAL KENTUCKY

CITY           SKY/WX    TMP DP  RH WIND       PRES   REMARKS
LOUISVILLE/SDF CLOUDY    67  51  56 S14       30.00S
LOUISVILLE/LOU CLOUDY    66  54  65 SE7       30.01S
FORT KNOX      MOCLDY    62  55  76 SE12      29.99R
$$

KYZ035>037-039>044-047>052-055>060-089>105-260400-
NORTHEAST KENTUCKY

CITY           SKY/WX    TMP DP  RH WIND       PRES   REMARKS
LEXINGTON      CLOUDY    66  50  56 SW7       30.04S
COVINGTON      CLOUDY    67  50  54 SE9       30.01F
FRANKFORT      CLOUDY    64  54  69 S7        30.02R
$$

KYZ054-064>069-076>088-106>120-260400-
SOUTHEAST KENTUCKY

CITY           SKY/WX    TMP DP  RH WIND       PRES   REMARKS
JACKSON        PTCLDY    67  45  45 VRB5      30.07F
LONDON         PTCLDY    61  44  53 CALM      30.06S
SOMERSET       CLOUDY    63  52  67 CALM      30.07F
MIDDLESBORO    CLOUDY    67  48  52 SE7       30.10S
MONTICELLO     CLOUDY    63  55  75 NE8       30.08S
$$




USA.gov is the U.S. government's official web portal to all federal, state and local government web resources and services.